EW1382 Weather Reports


Display with metric or nautical units.
time (UTC)temp
F
wind
direction
speed
MPH
gust
MPH
rain 1hr
in
rain 24hr
in
rain mn
in
humidity
%
barometer
mb
20171022173323 71 146 4.0 7.0 0.00 0.00 0.00 62 1024.0
20171022171828 72 141 4.0 7.0 0.00 0.00 0.00 60 1024.3
20171022170320 72 93 3.0 7.0 0.00 0.00 0.00 60 1024.3
20171022164825 71 155 4.0 7.0 0.00 0.00 0.00 61 1024.4
20171022163318 70 136 5.0 8.0 0.00 0.00 0.00 62 1024.4
20171022161823 70 110 5.0 8.0 0.00 0.00 0.00 62 1024.3
20171022160332 70 119 4.0 7.0 0.00 0.00 0.00 62 1024.4
20171022154818 70 132 4.0 6.0 0.00 0.00 0.00 63 1024.6
20171022153325 69 169 4.0 8.0 0.00 0.00 0.00 60 1024.7
20171022151832 68 164 4.0 9.0 0.00 0.00 0.00 63 1024.7
20171022150320 67 140 5.0 10.0 0.00 0.00 0.00 61 1024.7
20171022144826 66 164 4.0 9.0 0.00 0.00 0.00 65 1024.9
20171022143319 64 152 4.0 7.0 0.00 0.00 0.00 66 1025.1
20171022141824 63 148 5.0 7.0 0.00 0.00 0.00 67 1025.1
20171022140318 62 172 4.0 6.0 0.00 0.00 0.00 69 1025.2
20171022134823 61 160 3.0 8.0 0.00 0.00 0.00 70 1025.3
20171022133315 60 161 4.0 7.0 0.00 0.00 0.00 71 1025.3
20171022131819 58 150 5.0 8.0 0.00 0.00 0.00 73 1025.3
20171022130328 58 148 5.0 8.0 0.00 0.00 0.00 73 1025.5
20171022124817 56 129 4.0 6.0 0.00 0.00 0.00 76 1025.5
20171022123326 55 141 2.0 5.0 0.00 0.00 0.00 77 1025.7
20171022121814 55 143 3.0 3.0 0.00 0.00 0.00 79 1025.7
20171022120323 53 150 1.0 4.0 0.00 0.00 0.00 82 1025.5
20171022114828 52 137 2.0 5.0 0.00 0.00 0.00 83 1025.4
20171022113321 51 144 2.0 6.0 0.00 0.00 0.00 83 1025.4
20171022111825 51 155 2.0 3.0 0.00 0.00 0.00 83 1025.4
20171022110317 51 144 3.0 4.0 0.00 0.00 0.00 82 1025.4
20171022104822 52 146 1.0 4.0 0.00 0.00 0.00 81 1025.4
20171022103315 52 133 2.0 4.0 0.00 0.00 0.00 82 1025.4
20171022101821 52 131 2.0 3.0 0.00 0.00 0.00 82 1025.6
20171022100330 53 136 2.0 4.0 0.00 0.00 0.00 81 1025.5
20171022094819 53 148 4.0 6.0 0.00 0.00 0.00 81 1025.4
20171022093327 53 125 2.0 5.0 0.00 0.00 0.00 80 1025.3
20171022091817 53 141 2.0 4.0 0.00 0.00 0.00 79 1025.1
20171022090326 53 147 2.0 5.0 0.00 0.00 0.00 79 1025.0
20171022084816 52 148 2.0 4.0 0.00 0.00 0.00 80 1024.8
20171022083325 52 150 2.0 3.0 0.00 0.00 0.00 80 1024.8
20171022081830 53 149 2.0 2.0 0.00 0.00 0.00 78 1024.7
20171022080323 53 146 1.0 3.0 0.00 0.00 0.00 78 1024.5
20171022074827 54 143 1.0 4.0 0.00 0.00 0.00 77 1024.4
20171022073320 54 149 3.0 4.0 0.00 0.00 0.00 76 1024.5
20171022071824 54 153 3.0 6.0 0.00 0.00 0.00 75 1024.4
20171022070333 55 163 3.0 5.0 0.00 0.00 0.00 75 1024.5
20171022064821 54 150 3.0 5.0 0.00 0.00 0.00 77 1024.3
20171022063330 54 155 2.0 4.0 0.00 0.00 0.00 77 1024.4
20171022061819 54 139 3.0 5.0 0.00 0.00 0.00 76 1024.5
20171022060330 55 146 3.0 4.0 0.00 0.00 0.00 76 1024.4
20171022054817 55 150 4.0 5.0 0.00 0.00 0.00 76 1024.3
20171022053327 54 148 4.0 6.0 0.00 0.00 0.00 77 1024.2
20171022051832 55 145 4.0 5.0 0.00 0.00 0.00 74 1024.2
20171022050325 56 160 3.0 6.0 0.00 0.00 0.00 73 1024.0
20171022044830 56 153 4.0 6.0 0.00 0.00 0.00 73 1024.1
20171022043323 55 158 3.0 5.0 0.00 0.00 0.00 74 1024.1
20171022041828 55 136 3.0 5.0 0.00 0.00 0.00 75 1024.2
20171022034831 55 158 0.0 2.0 0.00 0.00 0.00 76 1024.1
20171022033320 55 158 1.0 3.0 0.00 0.00 0.00 77 1024.3
20171022031825 53 158 1.0 2.0 0.00 0.00 0.00 83 1024.2
20171022030327 53 133 1.0 2.0 0.00 0.00 0.00 86 1024.3
20171022024833 53 141 1.0 2.0 0.00 0.00 0.00 86 1024.4
20171022023325 53 153 1.0 3.0 0.00 0.00 0.00 88 1024.3
20171022021830 52 148 2.0 3.0 0.00 0.00 0.00 92 1024.2
20171022020322 51 165 1.0 2.0 0.00 0.00 0.00 92 1024.2
20171022014828 51 134 0.0 0.0 0.00 0.00 0.00 91 1024.1
20171022013317 51 134 0.0 1.0 0.00 0.00 0.00 91 1024.2
20171022011826 51 134 0.0 1.0 0.00 0.00 0.00 90 1024.1
20171022010316 52 134 0.0 1.0 0.00 0.00 0.00 90 1023.9
20171022004825 52 143 0.0 1.0 0.00 0.00 0.00 90 1024.0
20171022003314 53 143 0.0 1.0 0.00 0.00 0.00 89 1024.0
20171022001819 54 143 0.0 1.0 0.00 0.00 0.00 87 1023.9
20171022000332 55 143 0.0 1.0 0.00 0.00 0.00 86 1024.0
20171021234817 56 191 0.0 0.0 0.00 0.00 0.00 85 1024.1
20171021233329 57 191 0.0 0.0 0.00 0.00 0.00 84 1024.1
20171021231814 57 165 0.0 1.0 0.00 0.00 0.00 86 1024.1
20171021230326 57 134 0.0 1.0 0.00 0.00 0.00 85 1024.0
20171021224831 57 131 0.0 1.0 0.00 0.00 0.00 82 1024.0
20171021223319 59 131 0.0 1.0 0.00 0.00 0.00 78 1023.9
20171021221828 61 152 0.0 0.0 0.00 0.00 0.00 73 1023.9
20171021220330 64 152 0.0 0.0 0.00 0.00 0.00 67 1023.8
20171021214819 65 152 0.0 0.0 0.00 0.00 0.00 66 1023.9
20171021213328 67 152 0.0 0.0 0.00 0.00 0.00 62 1023.8
20171021211813 69 152 0.0 0.0 0.00 0.00 0.00 59 1023.7
20171021210326 70 153 2.0 3.0 0.00 0.00 0.00 54 1023.6
20171021204830 70 155 2.0 5.0 0.00 0.00 0.00 56 1023.6
20171021203321 71 135 3.0 5.0 0.00 0.00 0.00 53 1023.7
20171021201826 71 143 2.0 4.0 0.00 0.00 0.00 54 1023.8
20171021200319 71 108 1.0 3.0 0.00 0.00 0.00 54 1023.9
20171021193319 71 123 3.0 4.0 0.00 0.00 0.00 53 1023.9
20171021191827 71 137 3.0 5.0 0.00 0.00 0.00 59 1023.9
20171021190316 71 107 3.0 4.0 0.00 0.00 0.00 58 1023.9
20171021184825 71 105 2.0 4.0 0.00 0.00 0.00 61 1024.0
20171021183314 71 103 3.0 4.0 0.00 0.00 0.00 63 1024.1
20171021181818 71 107 2.0 4.0 0.00 0.00 0.00 64 1024.2
20171021180331 71 108 1.0 4.0 0.00 0.00 0.00 64 1024.4
20171021174832 71 108 1.0 4.0 0.00 0.00 0.00 63 1024.4